| DS18B20 | SHTC3 | PZEM-004T | WiFi | ||||||||
|---|---|---|---|---|---|---|---|---|---|---|---|
| ID | Date d/m/Y & Time | data1 สูง | data2 ต่ำ | data3 นอก | temp pcb | hum pcb | Volt | Amp | Watt | rssi | Time |
| 16838 | 28/08/2026 18:15:40 | 34.7  | 33.6  | 30.8  | 35.2  | 61.9  | 226.6  | 0.04  | 4.5  | -63  | 18:15 |
| 16837 | 28/08/2026 18:10:56 | 34.8  | 33.6  | 31.0  | 35.2  | 62.0  | 224.4  | 0.04  | 4.5  | -63  | 18:10 |
| 16836 | 28/08/2026 18:06:13 | 34.8  | 33.6  | 31.0  | 35.3  | 62.0  | 229.1  | 0.04  | 4.5  | -63  | 18:06 |
| 16835 | 28/08/2026 18:01:29 | 34.9  | 33.6  | 31.0  | 35.4  | 61.9  | 229.4  | 0.04  | 4.5  | -63  | 18:01 |
| 16834 | 28/08/2026 17:56:46 | 34.9  | 33.6  | 31.3  | 35.4  | 61.9  | 231.2  | 0.04  | 4.5  | -63  | 17:56 |
| 16833 | 28/08/2026 17:52:03 | 34.9  | 33.7  | 31.3  | 35.5  | 61.9  | 231.4  | 0.04  | 4.5  | -63  | 17:52 |
| 16832 | 28/08/2026 17:47:19 | 34.9  | 33.7  | 31.5  | 35.5  | 61.8  | 231.4  | 0.04  | 4.5  | -63  | 17:47 |
| 16831 | 28/08/2026 17:42:36 | 35.0  | 33.8  | 31.9  | 35.5  | 61.7  | 230.6  | 0.04  | 4.5  | -62  | 17:42 |
| 16830 | 28/08/2026 17:37:52 | 35.0  | 33.8  | 32.0  | 35.6  | 61.9  | 230.6  | 0.04  | 4.5  | -63  | 17:37 |
| 16829 | 28/08/2026 17:33:08 | 35.1  | 33.8  | 32.5  | 35.6  | 61.7  | 230.5  | 0.04  | 4.5  | -63  | 17:33 |
| 16828 | 28/08/2026 17:28:25 | 35.1  | 33.8  | 32.6  | 35.5  | 61.7  | 230.5  | 0.04  | 4.5  | -62  | 17:28 |
| 16827 | 28/08/2026 17:23:41 | 35.1  | 33.8  | 33.0  | 35.6  | 61.6  | 230.5  | 0.04  | 4.5  | -62  | 17:23 |
| 16826 | 28/08/2026 17:18:58 | 35.1  | 33.8  | 32.9  | 35.6  | 61.6  | 231.1  | 0.04  | 4.5  | -61  | 17:18 |
| 16825 | 28/08/2026 17:14:15 | 35.2  | 33.8  | 33.0  | 35.7  | 61.6  | 230.8  | 0.04  | 4.5  | -62  | 17:14 |
| 16824 | 28/08/2026 17:09:31 | 35.2  | 33.8  | 33.0  | 35.8  | 61.4  | 230.8  | 0.04  | 4.5  | -62  | 17:09 |
| 16823 | 28/08/2026 17:04:48 | 35.2  | 33.8  | 33.2  | 35.7  | 61.3  | 231.0  | 0.04  | 4.5  | -63  | 17:04 |
| 16822 | 28/08/2026 17:00:04 | 35.3  | 33.8  | 33.2  | 35.8  | 61.4  | 230.8  | 0.04  | 4.5  | -63  | 17:00 |
| 16821 | 28/08/2026 16:55:21 | 35.3  | 33.8  | 33.4  | 35.8  | 61.4  | 231.0  | 0.04  | 4.5  | -62  | 16:55 |
| 16820 | 28/08/2026 16:50:38 | 35.4  | 33.8  | 33.5  | 35.8  | 61.2  | 231.6  | 0.04  | 4.5  | -64  | 16:50 |
| 16819 | 28/08/2026 16:45:54 | 35.4  | 33.8  | 33.5  | 35.9  | 61.3  | 231.4  | 0.04  | 4.5  | -64  | 16:45 |
| 16818 | 28/08/2026 16:41:11 | 35.4  | 33.8  | 33.5  | 35.7  | 61.1  | 231.3  | 0.04  | 4.5  | -64  | 16:41 |
| 16817 | 28/08/2026 16:36:28 | 35.4  | 33.8  | 33.7  | 35.8  | 61.1  | 231.2  | 0.04  | 4.5  | -61  | 16:36 |
| 16816 | 28/08/2026 16:31:44 | 35.4  | 33.8  | 33.7  | 35.9  | 61.1  | 231.3  | 0.04  | 4.5  | -62  | 16:31 |
| 16815 | 28/08/2026 16:27:01 | 35.5  | 33.8  | 33.7  | 35.8  | 61.0  | 231.4  | 0.04  | 4.5  | -62  | 16:27 |